Rbgn^[z[y[W
メイン
   新天体発見情報
     Comet C/2018 K1 (Weiland)
投稿するにはまず登録を

スレッド表示 | 新しいものから 前のトピック | 次のトピック | 下へ
投稿者 スレッド
佐藤裕久
投稿日時: 2018-6-2 22:14
モデレータ
登録日: 2005-6-12
居住地: 日本
投稿: 2505
オンライン
Comet C/2018 K1 (Weiland)

Henry Weilandの通報によると、5月25.5日UT、ハワイ Mauna Loaにある小惑星地球衝突最終警報
システム Asteroid Terrestrial-impact Last Alert System (ATLAS)調査プログラムのコースに
0.5-m f/2 Schmidt反射望遠で得た4枚のCCD o-バンド画像から同程度の明るさの恒星よりむしろ
大きい(11".5)彗星を発見した。
小惑星センターのPCCP webpageに公表後、R. Werykは、5月24.6日UT、Haleakala にある1.8-m Pan-
STARRS1 Ritchey-Chretien望遠鏡で得た発見前CCD画像を見つけた。
西か南西(しかし、測るのが難しい)に少なくとも12"伸びている尾であるように見える。そして、
この彗星の頭部のFWHM(半値全幅)は近傍の恒星が1".3であるのに対し2".9であった。
測定されたw-バンド光度は18.5等であった。佐藤英貴氏(東京都文京区, iTelescope天文台,
5月25.8日, 30秒露出11枚のスタック, 0.51-m f/6.8 アストログラフ, Siding Spring, 遠隔操作:
外側のコマは30"あるが尾はない。16".4の円形範囲で測定した全光度は15.7-15.8等であった)や
門田健一氏(埼玉県上尾市, 0.25-m f/5 反射望遠鏡, 5月26.7日, この彗星は拡散し、中央集光の
1'.0のコマがあるが尾はない。測定した全光度は14.8等であった)らCCD観測者によって彗星状と
観測された。さらに、2017年11月6日、Pan-STARRS1による発見前の観測があった。

発見位置は次のとおり、

     2018 UT             R.A. (2000) Decl.       Mag.
     May  25.52985   19 38 35.86   -26 12 12.5   17.1
          25.53313   19 38 34.61   -26 12 13.9   16.6
          25.54194   19 38 31.32   -26 12 16.2   17.3
          25.54469   19 38 30.29   -26 12 16.6   16.5
          25.54560   19 38 29.96   -26 12 16.7   16.5
          25.54883   19 38 28.77   -26 12 17.6   17.2
          25.55664   19 38 25.92   -26 12 19.9   17.3

楕円軌道要素と位置推算表は次のとおり、

Orbital elements:
    C/2018 K1 (Weiland)
Epoch 2018 Mar. 23.0 TT = JDT 2458200.5
T 2018 Apr. 6.89556 TT                                  MPCW
q   1.8791485            (2000.0)            P               Q
n   0.00603493     Peri.  325.00161     +0.40126020     -0.87579872
a  29.8782178      Node   260.00177     -0.76591719     -0.48144320
e   0.9371064      Incl.  164.19267     -0.50235557     +0.03448246
P 163
From 75 observations 2017 Nov. 6-2018 May 30, mean residual 0".4.

Ephemeris:
    C/2018 K1 (Weiland)
Date    TT    R. A. (2000) Decl.     Delta      r     Elong.  Phase   m1
2018 05 01    21 12 46.2 -23 11 07   1.6715  1.9018    86.7    31.9  18.8
...
2018 05 16    20 27 38.7 -25 04 09   1.3227  1.9379   111.6    29.0  18.4
...
2018 05 24    19 47 47.2 -26 04 00   1.1684  1.9636   128.3    23.9  18.2
...
2018 05 30    19 08 53.4 -26 23 32   1.0819  1.9857   142.7    18.0  18.1
2018 05 31    19 01 42.0 -26 22 54   1.0707  1.9896   145.3    16.9  18.0
2018 06 01    18 54 19.9 -26 20 51   1.0606  1.9936   147.9    15.7  18.0
...
2018 06 07    18 07 25.0 -25 34 45   1.0233  2.0186   164.2     7.9  18.0
...
2018 06 15    17 04 13.5 -23 01 26   1.0427  2.0552   173.6     3.2  18.1
...
2018 06 30    15 34 44.7 -16 24 35   1.2712  2.1330   137.3    18.8  18.7

(CBET 4518、MPEC 2018-K117)

スレッド表示 | 新しいものから 前のトピック | 次のトピック | トップ

投稿するにはまず登録を
 
© 1999 Tsutomu Seki.